Dalzell, IL

2:17 PM CST on December 08, 2016 (GMT -0600)
Illinois Valley Regional-Duncan

Weather History for KVYS - March, 2012

Change the Weather History Date:

Tuesday, March 13, 2012

  Actual Average Record
Temperature  
Mean Temperature 58 °F -  
Max Temperature 73 °F 44 °F 80 °F (1990)
Min Temperature 44 °F 27 °F 13 °F (1969)
Degree Days  
Heating Degree Days 6    
Growing Degree Days 8 (Base 50)    
Moisture  
Dew Point 42 °F    
Average Humidity 60    
Maximum Humidity 93    
Minimum Humidity 24    
Precipitation  
Precipitation 0.00 in - - ()
Sea Level Pressure  
Sea Level Pressure 30.04 in    
Wind  
Wind Speed 5 mph (WSW)    
Max Wind Speed 10 mph    
Max Gust Speed -    
Visibility 9 miles    
Events      
Averages and records for this station are not official NWS values.
T = Trace of Precipitation, MM = Missing Value Source: NWS Daily Summary

Daily Weather History Graph

Daily Weather History Graph

Search for Another Location

Airport or City:

Trip Planner

Search our weather history database for the weather conditions in past years. The results will help you decide how hot, cold, wet, or windy it might be!

Date:

Astronomy

Mar. 13, 2012 Rise Set
Actual Time 7:10 AM CDT 7:01 PM CDT
Civil Twilight 6:43 AM CDT 7:29 PM CDT
Nautical Twilight 6:11 AM CDT 8:01 PM CDT
Astronomical Twilight 5:38 AM CDT 8:33 PM CDT
Moon 12:37 AM CDT (3/13) 10:19 AM CDT (3/13)
Length of Visible Light 12h 45m
Length of Day
11h 50m
Waning Gibbous, 65% of the Moon is Illuminated
Mar 13
Waning Gibbous
Mar 14
Last Quarter
Mar 22
New
Mar 30
First Quarter
Apr 6
Full

Hourly Weather History & Observations

Time (CDT) Temp. Windchill Dew Point Humidity Pressure Visibility Wind Dir Wind Speed Gust Speed Precip Events Conditions
12:15 AM 54.0 °F - 48.0 °F 80% 29.93 in 10.0 mi West 8.1 mph - N/A   Clear
12:35 AM 53.6 °F - 48.2 °F 82% 29.94 in 10.0 mi WSW 5.8 mph - N/A   Clear
12:55 AM 51.3 °F - 46.2 °F 83% 29.95 in 10.0 mi WSW 4.6 mph - N/A   Clear
1:15 AM 50.4 °F - 45.7 °F 84% 29.96 in 10.0 mi WSW 5.8 mph - N/A   Clear
1:35 AM 49.8 °F - 45.9 °F 86% 29.96 in 10.0 mi West 8.1 mph - N/A   Clear
1:55 AM 50.4 °F - 46.4 °F 86% 29.97 in 10.0 mi West 9.2 mph - N/A   Clear
2:15 AM 50.0 °F - 46.0 °F 86% 29.97 in 10.0 mi West 8.1 mph - N/A   Clear
2:35 AM 50.2 °F - 46.2 °F 86% 29.98 in 10.0 mi West 8.1 mph - N/A   Clear
2:55 AM 50.9 °F - 46.9 °F 86% 29.98 in 10.0 mi West 8.1 mph - N/A   Clear
3:15 AM 50.9 °F - 46.8 °F 86% 29.98 in 10.0 mi West 8.1 mph - N/A   Clear
3:35 AM 50.2 °F - 46.4 °F 87% 29.98 in 10.0 mi West 6.9 mph - N/A   Clear
3:55 AM 49.6 °F - 46.0 °F 87% 29.98 in 10.0 mi West 9.2 mph - N/A   Clear
4:15 AM 48.4 °F - 45.3 °F 89% 29.98 in 7.0 mi West 10.4 mph - N/A   Clear
4:35 AM 49.1 °F - 46.2 °F 90% 29.99 in 7.0 mi West 10.4 mph - N/A   Clear
4:55 AM 50.2 °F - 46.6 °F 87% 30.00 in 7.0 mi West 8.1 mph - N/A   Clear
5:15 AM 49.8 °F - 46.4 °F 88% 30.01 in 7.0 mi WNW 8.1 mph - N/A   Clear
5:35 AM 48.2 °F - 45.1 °F 89% 30.02 in 7.0 mi WNW 8.1 mph - N/A   Clear
5:55 AM 48.6 °F - 45.5 °F 89% 30.02 in 7.0 mi WNW 6.9 mph - N/A   Clear
6:15 AM 47.8 °F - 44.6 °F 89% 30.03 in 7.0 mi West 6.9 mph - N/A   Clear
6:35 AM 45.5 °F 41.3 °F 43.2 °F 92% 30.04 in 4.0 mi West 8.1 mph - N/A   Clear
6:55 AM 47.3 °F - 44.8 °F 91% 30.04 in 4.0 mi West 6.9 mph - N/A   Clear
7:15 AM 44.6 °F 40.7 °F 42.3 °F 91% 30.05 in 1.8 mi West 6.9 mph - N/A   Mist
7:35 AM 46.8 °F - 44.8 °F 93% 30.05 in 2.5 mi West 3.5 mph - N/A   Clear
7:55 AM 47.3 °F - 45.3 °F 93% 30.07 in 3.0 mi WSW 3.5 mph - N/A   Clear
8:15 AM 48.2 °F - 45.7 °F 91% 30.07 in 3.0 mi Calm Calm - N/A   Clear
8:35 AM 50.5 °F - 48.0 °F 91% 30.08 in 4.0 mi SSW 3.5 mph - N/A   Clear
8:55 AM 52.7 °F - 47.8 °F 84% 30.09 in 7.0 mi Calm Calm - N/A   Clear
9:15 AM 54.0 °F - 47.5 °F 79% 30.10 in 10.0 mi Calm Calm - N/A   Clear
9:35 AM 55.2 °F - 47.1 °F 74% 30.10 in 10.0 mi Calm Calm - N/A   Clear
9:55 AM 57.2 °F - 46.4 °F 67% 30.11 in 10.0 mi Calm Calm - N/A   Clear
10:15 AM 58.5 °F - 44.2 °F 59% 30.11 in 10.0 mi Calm Calm - N/A   Clear
10:35 AM 59.5 °F - 45.0 °F 59% 30.11 in 10.0 mi Calm Calm - N/A   Clear
10:55 AM 60.3 °F - 43.0 °F 53% 30.11 in 10.0 mi Calm Calm - N/A   Clear
11:15 AM 62.2 °F - 44.1 °F 51% 30.11 in 10.0 mi East 3.5 mph - N/A   Clear
11:35 AM 62.8 °F - 38.1 °F 40% 30.11 in 10.0 mi Calm Calm - N/A   Clear
11:55 AM 64.6 °F - 37.9 °F 37% 30.12 in 10.0 mi Calm Calm - N/A   Clear
12:15 PM 65.3 °F - 35.4 °F 33% 30.11 in 10.0 mi Calm Calm - N/A   Clear
12:35 PM 66.4 °F - 34.9 °F 31% 30.11 in 10.0 mi Calm Calm - N/A   Clear
12:55 PM 67.3 °F - 36.1 °F 32% 30.11 in 10.0 mi Calm Calm - N/A   Clear
1:15 PM 68.4 °F - 37.0 °F 32% 30.10 in 10.0 mi Calm Calm - N/A   Clear
1:35 PM 68.9 °F - 36.3 °F 30% 30.09 in 10.0 mi Calm Calm - N/A   Clear
1:55 PM 69.4 °F - 36.0 °F 29% 30.09 in 10.0 mi Calm Calm - N/A   Clear
2:15 PM 70.0 °F - 33.8 °F 26% 30.08 in 10.0 mi Calm Calm - N/A   Clear
2:35 PM 70.0 °F - 32.9 °F 25% 30.08 in 10.0 mi Calm Calm - N/A   Clear
2:55 PM 70.9 °F - 34.0 °F 26% 30.07 in 10.0 mi Calm Calm - N/A   Clear
3:15 PM 71.8 °F - 32.5 °F 24% 30.06 in 10.0 mi SE 4.6 mph - N/A   Clear
3:35 PM 71.6 °F - 33.8 °F 25% 30.06 in 10.0 mi Calm Calm - N/A   Clear
3:55 PM 73.2 °F - 34.2 °F 24% 30.05 in 10.0 mi South 4.6 mph - N/A   Clear
4:15 PM 73.4 °F - 35.1 °F 25% 30.05 in 10.0 mi South 4.6 mph - N/A   Clear
4:35 PM 73.6 °F - 34.5 °F 24% 30.05 in 10.0 mi Calm Calm - N/A   Clear
4:55 PM 73.8 °F - 35.1 °F 24% 30.04 in 10.0 mi SSE 5.8 mph - N/A   Clear
5:15 PM 73.9 °F - 36.3 °F 25% 30.04 in 10.0 mi SSE 3.5 mph - N/A   Clear
5:35 PM 73.6 °F - 36.7 °F 26% 30.04 in 10.0 mi SSE 6.9 mph - N/A   Clear
5:55 PM 73.0 °F - 37.9 °F 28% 30.04 in 10.0 mi SE 6.9 mph - N/A   Clear
6:15 PM 71.8 °F - 39.6 °F 31% 30.04 in 10.0 mi SE 6.9 mph - N/A   Clear
6:35 PM 70.5 °F - 39.2 °F 32% 30.04 in 10.0 mi ESE 8.1 mph - N/A   Clear
6:55 PM 69.8 °F - 38.8 °F 32% 30.04 in 10.0 mi ESE 5.8 mph - N/A   Clear
7:15 PM 68.9 °F - 39.4 °F 34% 30.03 in 10.0 mi ESE 5.8 mph - N/A   Clear
7:35 PM 66.2 °F - 41.0 °F 40% 30.03 in 10.0 mi ESE 5.8 mph - N/A   Clear
7:55 PM 65.1 °F - 39.9 °F 40% 30.03 in 10.0 mi ESE 6.9 mph - N/A   Clear
8:15 PM 65.3 °F - 40.5 °F 40% 30.03 in 10.0 mi ESE 6.9 mph - N/A   Clear
8:35 PM 62.2 °F - 41.9 °F 47% 30.04 in 10.0 mi ESE 6.9 mph - N/A   Clear
8:55 PM 62.1 °F - 42.8 °F 49% 30.04 in 10.0 mi ESE 6.9 mph - N/A   Clear
9:15 PM 61.2 °F - 43.3 °F 52% 30.04 in 10.0 mi ESE 6.9 mph - N/A   Clear
9:35 PM 62.1 °F - 43.9 °F 51% 30.04 in 10.0 mi ESE 8.1 mph - N/A   Clear
9:55 PM 62.1 °F - 44.1 °F 52% 30.04 in 10.0 mi ESE 9.2 mph - N/A   Clear
10:15 PM 62.1 °F - 44.4 °F 52% 30.04 in 10.0 mi SE 10.4 mph - N/A   Clear
10:35 PM 61.0 °F - 45.0 °F 56% 30.03 in 10.0 mi SE 10.4 mph - N/A   Clear
10:55 PM 61.9 °F - 46.2 °F 56% 30.04 in 10.0 mi SE 12.7 mph - N/A   Clear
11:15 PM 61.2 °F - 45.9 °F 57% 30.03 in 10.0 mi SSE 11.5 mph - N/A   Clear
11:35 PM 60.4 °F - 45.9 °F 59% 30.03 in 10.0 mi SSE 11.5 mph - N/A   Clear
11:55 PM 59.5 °F - 45.9 °F 61% 30.03 in 10.0 mi SSE 11.5 mph - N/A   Clear